Weather History for Fond du Lac, WI

Change the Weather History Date:

Wednesday, October 23, 2013

  Actual Average Record
Temperature  
Mean Temperature 36 °F -  
Max Temperature 45 °F 56 °F 83 °F (1963)
Min Temperature 28 °F 41 °F 22 °F (1969)
Degree Days  
Heating Degree Days 29    
Moisture  
Dew Point 23 °F    
Average Humidity 63    
Maximum Humidity 78    
Minimum Humidity 37    
Precipitation  
Precipitation 0.00 in - - ()
Sea Level Pressure  
Sea Level Pressure 29.98 in    
Wind  
Wind Speed 8 mph (WNW)    
Max Wind Speed 13 mph    
Max Gust Speed 23 mph    
Visibility 10 miles    
Events      
Averages and records for this station are not official NWS values.
T = Trace of Precipitation, MM = Missing Value Source: NWS Daily Summary

Daily Weather History Graph

Daily Weather History Graph

Search for Another Location

Airport:

Trip Planner

Search our weather history database for the weather conditions in past years. The results will help you decide how hot, cold, wet, or windy it might be!

Date:

Astronomy

Oct. 23, 2013 Rise Set
Actual Time 7:18 AM CDT 5:57 PM CDT
Civil Twilight 6:49 AM CDT 6:26 PM CDT
Nautical Twilight 6:15 AM CDT 6:59 PM CDT
Astronomical Twilight 5:42 AM CDT 7:33 PM CDT
Moon 9:23 PM CDT 11:40 AM CDT
Length of Visible Light 11h 37m
Length of Day
10h 38m
Waning Gibbous, 79% of the Moon is Illuminated
Oct 23
Waning Gibbous
Oct 26
Last Quarter
Nov 3
New
Nov 9
First Quarter
Nov 17
Full

Hourly Weather History & Observations

Time (CDT) Temp. Windchill Dew Point Humidity Pressure Visibility Wind Dir Wind Speed Gust Speed Precip Events Conditions
12:53 AM 30.9 °F 25.2 °F 24.1 °F 76% 29.96 in 10.0 mi NW 5.8 mph - N/A   Mostly Cloudy
1:53 AM 28.9 °F 22.8 °F 23.0 °F 78% 29.96 in 10.0 mi NW 5.8 mph - N/A   Clear
2:53 AM 28.0 °F 20.0 °F 21.9 °F 78% 29.96 in 10.0 mi WNW 8.1 mph - N/A   Clear
3:53 AM 28.0 °F 20.0 °F 21.9 °F 78% 29.95 in 10.0 mi WNW 8.1 mph - N/A   Partly Cloudy
4:53 AM 28.9 °F 21.1 °F 23.0 °F 78% 29.95 in 10.0 mi WNW 8.1 mph - N/A   Overcast
5:53 AM 30.0 °F 24.1 °F 23.0 °F 75% 29.96 in 10.0 mi NW 5.8 mph - N/A   Overcast
6:53 AM 30.9 °F 22.2 °F 24.1 °F 76% 29.97 in 10.0 mi WNW 10.4 mph - N/A   Overcast
7:53 AM 32.0 °F 24.2 °F 24.1 °F 73% 29.98 in 10.0 mi WNW 9.2 mph - N/A   Overcast
8:53 AM 34.0 °F 25.5 °F 24.1 °F 67% 29.99 in 10.0 mi WNW 11.5 mph - N/A   Overcast
9:53 AM 35.1 °F 26.4 °F 24.1 °F 64% 29.98 in 10.0 mi WNW 12.7 mph - N/A   Overcast
10:53 AM 37.0 °F 29.8 °F 24.1 °F 59% 29.99 in 10.0 mi WNW 10.4 mph - N/A   Overcast
11:53 AM 42.1 °F 36.1 °F 23.0 °F 47% 29.98 in 10.0 mi West 10.4 mph - N/A   Partly Cloudy
12:53 PM 43.0 °F 37.2 °F 18.0 °F 37% 29.96 in 10.0 mi WNW 10.4 mph - N/A   Clear
1:53 PM 42.1 °F 35.7 °F 18.0 °F 38% 29.95 in 10.0 mi WNW 11.5 mph - N/A   Scattered Clouds
2:53 PM 44.1 °F 38.1 °F 19.0 °F 37% 29.95 in 10.0 mi West 11.5 mph 23.0 mph N/A   Mostly Cloudy
3:53 PM 42.1 °F 35.2 °F 19.9 °F 41% 29.96 in 10.0 mi WNW 12.7 mph - N/A   Overcast
4:53 PM 39.9 °F 33.4 °F 23.0 °F 51% 29.97 in 10.0 mi WNW 10.4 mph - N/A   Overcast
5:53 PM 37.9 °F 32.1 °F 24.1 °F 57% 29.98 in 10.0 mi West 8.1 mph - N/A   Overcast
6:53 PM 37.0 °F 31.6 °F 25.0 °F 62% 29.99 in 10.0 mi West 6.9 mph - N/A   Overcast
7:53 PM 36.0 °F 29.6 °F 25.0 °F 64% 30.00 in 10.0 mi West 8.1 mph - N/A   Overcast
8:53 PM 35.1 °F 27.9 °F 26.1 °F 70% 30.00 in 10.0 mi WNW 9.2 mph - N/A   Overcast
9:53 PM 35.1 °F 28.6 °F 27.0 °F 72% 30.01 in 10.0 mi West 8.1 mph - N/A   Overcast
10:53 PM 35.1 °F 27.9 °F 26.1 °F 70% 30.01 in 10.0 mi WNW 9.2 mph - N/A   Overcast
11:53 PM 34.0 °F 26.6 °F 26.1 °F 73% 30.01 in 10.0 mi WNW 9.2 mph - N/A   Overcast